ARIANE 5 R/B, 37811

Orbit data source: Space-Track

ARIANE 5 R/B, 37811 is space debris in HEO originally from a launch on Wed, 21 Sep 2011 UTC launched from the French Guiana (FRGUI). Debris objects in space refer to the collection of defunct objects orbiting the Earth. Examples of debris include non-operational satellites, rocket bodies, and fragments generated from explosions, collisions, or faulty payload assembly.

Loading next visibility...
Identifier
37811, 2011-049C
Orbit
HEO
Country
Flag of FRFR
Related business
Manufacturer
EADS/LV
Mission
Spacecraft
Bus & Motor
ESC-A, Unknown motor
Mass
~5,000 kg wet, ~5,000 kg dry
Launch date (UTC)
2011-09-21 (14 years ago)
Launch vehicle
Unknown
Launch site
French Guiana (FRGUI)
Object type
Payload
Rocket body
Debris
Shape & HBR
Cyl + 1 Nozzle, 3.5 m
Radar Cross Section
41.627 m², Large (>1 m²)

Expand to show TLE details & history
Last TLE update: 16 hours ago

TLE from 16 hours ago
0 ARIANE 5 R/B
1 37811U 11049C   25260.98343897  .00011944  00000-0  14683-2 0  9994
2 37811   2.6675 303.0186 6915519 208.8937  81.7529  2.77176092126767
Epoch: 2025-09-17T23:36Z
TLE epoch observation values (Epoch: 2025-09-17T23:36:09.127Z)
Latitude
-0.00001°
Longitude
-48.51701°
Altitude
21,756.707 km
Speed
3.117 km/s
True Right ascension
20h 10m 41s
True Declination
0° 00' 00"
Sunlit
Object was in daylight at epoch
Visualization orbit readout
Latitude
Unknown
Longitude
Unknown
Altitude
Unknown
Speed
Unknown
Apparent Right ascension
Unknown
Apparent Declination
Unknown
Sunlit
N/A
Visualization observer readout
Local Sidereal Time
08:06:30
Azimuth
Unknown
Elevation
Unknown
Doppler factor
Unknown
Orbital elements
Apogee altitude
29,842.881 km
Perigee altitude
226.629 km
Semi-major axis
21,412.892 km
Eccentricity
0.69155
Inclination
2.6675°
RAAN
303.0186°
Arg. of periapsis
208.8937°
True anomaly
150.69545°
Mean anomaly
81.7529°
Eccentric anomaly
117.04357°
Mean motion
0.69268 °/min
Orbital period
519.72 mins
BSTAR
0.0014683
Loading maneuver chart data...
Computing Atmospheric mass density...
Loading historical data...
Loading historical data...
Loading historical data...
Loading historical data...
Loading historical data...
Loading historical data...
Loading historical data...
Other satellites on launch #49 in the year 2011 (2011-09-21 UTC)

Documentation

Showing up to 5 results
|